Location: Minneapolis
(45.0000°N, 93.0000°W)
Time: 07:07:28
(UTC-05:00)

ISS - Pass Details

Date: 09 March 2018
Orbit: 403 x 407 km, 51.6° (Epoch: 26 June)

Event Time Altitude Azimuth Distance (km) Brightness Sun altitude
Exits shadow 04:01:58 19° 40° (NE) 1,053 -1.1 -27.4°
Drops below altitude 10° 04:03:10 10° 52° (NE) 1,480 -0.1 -27.2°
Sets 04:05:22 0° 61° (ENE) 2,340 1.3 -26.9°
